IRIDIUM 33 DEB

Satellite information

Favourite Embed

Satellite Type and Status

DEBRISIN ORBIT

Key statistics

Satellite IRIDIUM 33 DEB at a glance.

Uptime

10318

Days in orbit

Revolutions

≈ 14.8

Per day

Orbit

LEO

Low Earth Orbit

Inclination

86.3

Latest

Satellite identification and parameters

Extended collection of information and parameters for IRIDIUM 33 DEB.

Object identification

Identified? True

Debris? True

Object name: IRIDIUM 33 DEB

International designator: 1997-051TY

Object number (NORAD): 35915

Object ID (CCSDS): 35915

Country: UNITED STATES OF AMERICA (US)

Current information (Y/N): Y

RCS size: SMALL

Orbital parameters

Period: 97.262 minutes

Inclination: 86.3429 deg

SMA: 7005.751 km

Apoapsis: 634.744 km

Periapsis: 620.487 km

RAAN: 345.2367 deg

Eccentricy: 0.00101746

Argument of periapsis: 205.9072 deg

Mean anomaly: 154.1641 deg

Mean motion: 14.80542095 rev/day

Mean motion (dot): 0.00023136 rev/day2

B* drag term: 0.0030076362 1/REarth

Two-line elements (TLE)

Creation date: Dec. 8, 2025, 3:46 a.m.

Reference frame: TEME

Reference center: EARTH

Epoch: Dec. 7, 2025, 6:02 p.m. UTC

TLE line 0: 0 IRIDIUM 33 DEB

TLE line 1: 1 35915U 97051TY 25341.75157984 .00023136 00000-0 30076-2 0 9999

TLE line 2: 2 35915 86.3429 345.2367 0010175 205.9072 154.1641 14.80542095 80127

Live tracking on map

Real-time ground track for satellite IRIDIUM 33 DEB.

In-orbit conjunctions

A list of the most updated potential collisions computed for object IRIDIUM 33 DEB.

Target Orbit TCA Probability of collision Miss distance Type
FENGYUN 1C DEB SSO 2025-07-23 21:23:31 0.0002875282 130.0 (m) DEBRIS

Associated space launch

Iridium provides global mobile telecommunications services using a constellation of 66 low earth orbit satellites in a 86.4° inclined orbit. Although 77 satellites were originally envisioned for the system and spawned the name based on the 77th element in the periodic table, the system has been scaled back. Motorola's Satellite Communications Group designed and manufactured the Iridium satellites with Lockheed Martin providing the LM-700A spacecraft buses.

IRIDIUM 33 DEB was lifted into orbit during the mission ‘Proton-K/17S40 | Iridium 27 to 33’, on board a Proton-K/17S40 space rocket.

The launch took place on Sept. 14, 1997, 1:36 a.m. from 81/23 (81L).

For more information about the launch, click the button.

Launch to space Proton-K/17S40 | Iridium 27 to 33
Proton-K/17S40 | Iridium 27 to 33

Agency: N/A

Status: Launch Successful

Launch date: Sept. 14, 1997, 1:36 a.m. UTC

Rocket: Proton-K/17S40

Launch pad: 81/23 (81L)

Location: Baikonur Cosmodrome, Republic of Kazakhstan

...

Latest news about this satellite

There are no fresh news available about this satellite. Check back as we update our databases every day.


Newsletter sign-up

Weekly statistics, charts and insights to help you stay on top of the space industry.